Stations météo

Publicité
Tarbes/Ossun, France (7621): Température de l'air & dewpoint: 17.04.2017 23:00:00 - 23.04.2017 23:00:00 (CEST)Tarbes/Ossun, France (7621): Température de l'air 5cm: 17.04.2017 23:00:00 - 23.04.2017 23:00:00 (CEST)Tarbes/Ossun, France (7621): Température de l'air -20cm & Température de l'air -100cm: 17.04.2017 23:00:00 - 23.04.2017 23:00:00 (CEST)Tarbes/Ossun, France (7621): Vitesse du vent & gusts: 17.04.2017 23:00:00 - 23.04.2017 23:00:00 (CEST)Tarbes/Ossun, France (7621): Direction du vent: 17.04.2017 23:00:00 - 23.04.2017 23:00:00 (CEST)Tarbes/Ossun, France (7621): reduced air pressure: 17.04.2017 23:00:00 - 23.04.2017 23:00:00 (CEST)Tarbes/Ossun, France (7621): visibility: 17.04.2017 23:00:00 - 23.04.2017 23:00:00 (CEST)Tarbes/Ossun, France (7621): Ensoleillement: 17.04.2017 23:00:00 - 23.04.2017 23:00:00 (CEST)Tarbes/Ossun, France (7621): Quantités de précipitations: 17.04.2017 23:00:00 - 23.04.2017 23:00:00 (CEST)
Date & Time tt [°C] td [°C] tt 5cm [°C] tt -20cm [°C] tt -100cm [°C] ff [km/h] ff [knt] fx [km/h] fx [knt] dd ppp [hPa] vv [km] sd [min] rr [mm]
23.04.2017 23:00:00 14,1 4,7 6,8 15,0 12,1 14 8 18 10 S 1017,2 60 0 0,0
23.04.2017 22:00:00 11,5 5,1 8,1 14,9 12,1 8 4 13 7 S 1017,3 60 0 0,0
23.04.2017 21:00:00 18,4 2,6 9,8 14,8 12,1 3 1 16 8 W 1016,0 20 24 0,0
23.04.2017 20:00:00 20,6 3,8 16,9 14,6 12,1 11 6 22 12 N 1015,5 59 60 0,0
23.04.2017 19:00:00 22,6 4,1 26,5 14,4 12,1 13 7 27 15 N 1015,1 39 60 0,0
23.04.2017 18:00:00 23,3 3,2 37,7 14,0 12,1 13 7 28 15 N 1015,0 54 60 0,0
23.04.2017 17:00:00 23,6 1,8 41,2 13,7 12,0 9 5 28 15 N 1015,2 50 60 0,0
23.04.2017 16:00:00 23,6 3,0 41,1 13,4 12,0 14 8 29 15 NNW 1015,6 52 60 0,0
23.04.2017 15:00:00 23,2 2,1 39,7 13,2 12,0 9 5 23 13 N 1016,2 60 60 0,0
23.04.2017 14:00:00 23,1 2,0 35,6 13,0 12,1 10 6 29 15 NE 1016,6 57 60 0,0
23.04.2017 13:00:00 22,6 3,7 33,0 13,0 12,1 10 5 22 12 NNE 1017,3 59 60 0,0
23.04.2017 12:00:00 21,9 3,5 25,6 12,9 12,1 9 5 20 11 NNE 1017,6 20 60 0,0
23.04.2017 11:00:00 20,6 2,4 19,7 13,0 12,1 4 2 9 5 NNW 1018,0 47 60 0,0
23.04.2017 10:00:00 17,9 6,1 12,9 13,1 12,1 7 4 15 8 S 1018,3 44 60 0,0
23.04.2017 09:00:00 14,2 5,8 5,9 13,2 12,1 10 5 16 9 S 1019,1 48 60 0,0
23.04.2017 08:00:00 9,4 3,8 3,3 13,3 12,1 10 5 16 9 S 1019,9 53 27 0,0
23.04.2017 07:00:00 7,7 3,2 2,2 13,5 12,1 13 7 19 10 S 1019,8 60 0 0,0
23.04.2017 06:00:00 8,4 3,4 2,8 13,6 12,1 10 5 16 8 S 1019,7 60 0 0,0
23.04.2017 05:00:00 8,9 3,1 2,6 13,8 12,1 10 5 14 8 S 1019,6 60 0 0,0
23.04.2017 04:00:00 6,2 2,8 2,2 13,9 12,1 9 5 11 6 SSE 1020,3 60 0 0,0
23.04.2017 03:00:00 6,0 2,1 2,4 14,1 12,1 7 4 10 6 S 1020,6 60 0 0,0
23.04.2017 02:00:00 7,5 2,8 3,1 14,2 12,1 3 2 13 7 ENE 1020,9 60 0 0,0
23.04.2017 01:00:00 8,4 2,8 4,1 14,3 12,1 8 4 13 7 SE 1020,8 60 0 0,0
23.04.2017 00:00:00 10,6 3,1 4,3 14,3 12,1 9 5 14 7 SSE 1020,6 60 0 0,0
22.04.2017 23:00:00 9,6 3,3 5,5 14,4 12,1 7 4 10 5 S 1020,8 60 0 0,0
22.04.2017 22:00:00 11,5 3,3 6,8 14,3 12,1 10 5 11 6 S 1020,3 60 0 0,0
22.04.2017 21:00:00 18,3 -0,5 - - - 5 3 15 8 NNE 1018,8 60 - 0,0
22.04.2017 20:00:00 20,4 1,3 16,2 13,9 12,1 12 7 21 11 N 1018,2 60 60 0,0
22.04.2017 19:00:00 22,0 1,1 26,5 13,6 12,1 12 7 22 12 N 1018,1 60 60 0,0
22.04.2017 18:00:00 23,0 0,1 37,5 13,3 12,1 10 5 22 12 NNE 1018,3 20 60 0,0
22.04.2017 17:00:00 22,9 0,7 41,0 13,0 12,1 15 8 26 14 NNE 1018,6 60 60 0,0
22.04.2017 16:00:00 22,5 0,3 42,2 12,7 12,1 6 3 26 14 N 1019,4 51 60 0,0
22.04.2017 15:00:00 22,3 1,3 37,3 12,4 12,1 10 5 26 14 NNE 1020,3 57 60 0,0
22.04.2017 14:00:00 21,7 2,4 34,6 12,3 12,1 14 8 26 14 NNE 1020,9 60 60 0,0
22.04.2017 13:00:00 21,4 0,5 32,9 12,2 12,1 13 7 25 14 NNE 1021,6 60 60 0,0
22.04.2017 12:00:00 20,7 4,7 24,3 12,2 12,1 9 5 18 10 NNE 1022,1 19 60 0,0
22.04.2017 11:00:00 19,1 3,7 19,0 12,2 12,1 6 3 11 6 NNE 1022,6 20 60 0,0
22.04.2017 10:00:00 18,1 3,9 12,1 12,3 12,1 4 2 12 7 E 1022,8 55 60 0,0
22.04.2017 09:00:00 13,4 3,7 5,5 12,4 12,1 11 6 23 12 SSE 1023,6 60 60 0,0
22.04.2017 08:00:00 9,2 2,7 1,6 12,5 12,1 11 6 17 9 SSE 1024,4 49 28 0,0
22.04.2017 07:00:00 6,6 1,9 1,1 12,7 12,1 10 6 15 8 S 1024,5 60 0 0,0
22.04.2017 06:00:00 6,5 1,4 1,1 12,8 12,1 9 5 16 8 S 1024,4 60 0 0,0
22.04.2017 05:00:00 7,6 1,0 2,0 12,9 12,1 9 5 15 8 S 1024,6 60 0 0,0
22.04.2017 04:00:00 6,1 1,2 0,6 13,1 12,1 10 5 15 8 S 1024,8 60 0 0,0
22.04.2017 03:00:00 4,8 0,6 0,5 13,2 12,1 9 5 10 6 S 1025,4 60 0 0,0
22.04.2017 02:00:00 5,3 0,8 - - - 8 4 9 5 SSE 1025,7 60 - -
22.04.2017 01:00:00 5,8 0,5 1,7 13,4 12,1 6 4 8 5 S 1025,8 60 0 0,0
22.04.2017 00:00:00 7,7 0,2 2,3 13,5 12,1 5 3 9 5 SSE 1025,8 57 0 0,0
21.04.2017 23:00:00 8,6 0,3 3,0 13,5 12,1 4 2 9 5 S 1025,9 60 0 0,0
21.04.2017 22:00:00 11,1 -0,4 4,4 13,5 12,2 3 2 12 7 S 1025,5 59 0 0,0
21.04.2017 21:00:00 15,5 -4,0 7,5 13,3 12,2 8 4 22 12 NE 1024,5 60 28 0,0
21.04.2017 20:00:00 17,7 -3,2 13,9 13,1 12,1 10 6 26 14 NE 1024,0 60 60 0,0
21.04.2017 19:00:00 19,2 -3,7 23,9 12,8 12,1 12 6 30 16 ENE 1023,9 59 60 0,0
21.04.2017 18:00:00 19,8 -2,0 34,0 12,5 12,1 10 6 25 13 E 1023,8 54 60 0,0
21.04.2017 17:00:00 19,7 -0,9 39,3 12,1 12,1 13 7 31 17 NE 1024,2 43 60 0,0
21.04.2017 16:00:00 19,6 -1,0 38,7 11,8 12,1 14 7 28 15 NNE 1024,8 59 60 0,0
21.04.2017 15:00:00 19,0 -2,1 33,8 11,6 12,1 10 6 28 15 NNE 1025,6 60 60 0,0
21.04.2017 14:00:00 18,3 -0,1 32,1 11,5 12,1 9 5 26 14 NNE 1026,3 20 60 0,0
21.04.2017 13:00:00 17,1 -0,2 30,1 11,5 12,2 9 5 24 13 N 1026,6 56 60 0,0
21.04.2017 12:00:00 16,0 -0,3 20,6 11,5 12,1 7 4 20 11 NNE 1026,8 60 60 0,0
21.04.2017 11:00:00 14,9 -0,1 13,5 11,5 12,1 4 2 12 7 NNE 1026,8 20 60 0,0
21.04.2017 10:00:00 11,7 0,7 4,7 11,7 12,2 4 2 8 4 N 1027,1 44 60 0,0
21.04.2017 09:00:00 6,1 -0,9 -2,0 11,8 12,1 3 2 11 6 S 1027,6 51 60 0,0
21.04.2017 08:00:00 0,2 -2,0 -4,7 12,0 12,2 9 5 10 6 SSW 1028,0 50 26 0,0
21.04.2017 07:00:00 -0,7 -3,4 -4,7 12,2 12,2 5 3 10 5 S 1028,1 60 0 0,0
21.04.2017 06:00:00 -0,7 -4,6 -4,3 12,4 12,2 9 5 11 6 SSE 1028,1 60 0 0,0
21.04.2017 05:00:00 -0,5 -3,9 -4,5 12,6 12,1 8 4 11 6 SSW 1028,1 60 0 0,0
21.04.2017 04:00:00 0,1 -3,8 -3,8 12,7 12,2 5 3 8 5 SSE 1027,9 60 0 0,0
21.04.2017 03:00:00 0,1 -3,6 - - - 5 3 8 4 S 1028,1 60 - 0,0
21.04.2017 02:00:00 2,3 -3,4 -3,1 13,1 12,2 5 3 8 5 SSE 1028,2 60 0 0,0
21.04.2017 01:00:00 2,5 -3,2 -1,9 13,2 12,2 6 4 8 4 S 1028,5 60 0 0,0
21.04.2017 00:00:00 2,6 -2,7 -1,8 13,3 12,1 5 3 8 4 S 1028,5 60 0 0,0
20.04.2017 23:00:00 3,5 -3,1 -0,8 13,4 12,2 6 3 9 5 S 1028,5 60 0 0,0
20.04.2017 22:00:00 10,0 -6,0 0,9 13,4 12,2 3 2 16 9 E 1027,2 60 0 0,0
20.04.2017 21:00:00 11,5 -6,4 5,4 13,3 12,2 10 5 26 14 NE 1026,4 60 26 0,0
20.04.2017 20:00:00 13,8 -8,2 10,9 13,1 12,1 13 7 30 16 NE 1025,6 59 60 0,0
20.04.2017 19:00:00 14,9 -6,7 19,9 12,8 12,2 16 9 35 19 ENE 1025,3 60 60 0,0
20.04.2017 18:00:00 15,7 -6,6 30,1 12,5 12,2 16 9 32 17 NE 1025,0 28 60 0,0
20.04.2017 17:00:00 15,7 -7,2 35,2 12,2 12,2 16 8 33 18 NE 1025,2 20 60 0,0
20.04.2017 16:00:00 15,8 -5,3 33,9 12,0 12,2 16 9 37 20 NNE 1025,6 60 60 0,0
20.04.2017 15:00:00 15,1 -4,3 - - - 13 7 29 16 ENE 1026,3 60 - 0,0
20.04.2017 14:00:00 14,0 -3,8 28,8 11,7 12,2 11 6 31 17 ENE 1026,7 59 60 0,0
20.04.2017 13:00:00 12,3 -2,0 25,4 11,7 12,2 15 8 34 18 NE 1027,4 56 60 0,0
20.04.2017 12:00:00 11,0 -1,8 17,0 11,8 12,2 16 8 29 16 NNE 1027,9 60 60 0,0
20.04.2017 11:00:00 9,5 -2,2 10,7 11,9 12,2 13 7 24 13 ENE 1028,2 60 60 0,0
20.04.2017 10:00:00 7,8 -2,8 1,2 12,0 12,2 9 5 19 10 NE 1028,2 54 60 0,0
20.04.2017 09:00:00 4,5 -2,6 -3,4 12,2 12,1 4 2 6 4 N 1028,8 54 60 0,0
20.04.2017 08:00:00 -0,5 -3,4 -5,9 12,4 12,2 0 0 5 3 N 1029,5 53 24 0,0
20.04.2017 07:00:00 1,2 -4,9 -5,8 12,6 12,2 0 0 10 5 N 1028,8 60 0 0,0
20.04.2017 06:00:00 1,6 -4,7 -5,0 12,8 12,2 5 3 14 8 NNE 1028,6 60 0 0,0
20.04.2017 05:00:00 0,7 -4,0 -4,8 13,0 12,2 3 2 8 4 NW 1028,7 60 0 0,0
20.04.2017 04:00:00 1,9 -3,6 -3,5 13,2 12,1 5 3 9 5 NNW 1028,0 60 0 0,0
20.04.2017 03:00:00 1,2 -4,1 -3,0 13,3 12,2 8 4 11 6 N 1028,4 59 0 0,0
20.04.2017 02:00:00 2,1 -3,8 -1,9 13,5 12,2 2 1 17 9 WSW 1028,3 52 0 0,0
20.04.2017 01:00:00 5,7 -3,1 -1,7 13,6 12,1 13 7 23 13 ENE 1027,6 60 0 0,0
20.04.2017 00:00:00 2,3 -2,6 -1,4 13,7 12,1 4 2 10 5 SW 1027,7 60 0 0,0
19.04.2017 23:00:00 3,7 -2,3 0,0 13,9 12,2 8 5 11 6 SSW 1027,3 39 0 0,0
19.04.2017 22:00:00 9,2 -5,5 1,2 13,9 12,2 5 3 17 9 E 1026,0 60 0 0,0
19.04.2017 21:00:00 11,0 -6,4 5,4 13,8 12,1 10 6 32 17 NE 1025,0 60 25 0,0
19.04.2017 20:00:00 12,6 -6,9 10,0 13,6 12,1 32 18 65 35 NE 1024,3 50 60 0,0
19.04.2017 19:00:00 13,5 -6,2 18,8 13,4 12,1 21 11 37 20 NNE 1023,8 38 60 0,0
19.04.2017 18:00:00 14,5 -4,8 28,9 13,2 12,1 16 9 36 20 NE 1023,4 58 60 0,0
19.04.2017 17:00:00 14,7 -4,1 32,7 12,9 12,1 19 10 42 23 NE 1023,6 57 60 0,0
19.04.2017 16:00:00 14,7 -4,6 31,4 12,7 12,1 18 10 37 20 NE 1023,8 54 60 0,0
19.04.2017 15:00:00 14,2 -4,1 29,4 12,6 12,1 19 10 39 21 NE 1024,2 60 60 0,0
19.04.2017 14:00:00 13,2 -2,7 26,4 12,5 12,1 20 11 37 20 NE 1024,6 60 60 0,0
19.04.2017 13:00:00 12,4 -3,0 24,3 12,5 12,1 19 10 36 19 ENE 1025,1 52 60 0,0
19.04.2017 12:00:00 12,1 -0,8 17,2 12,6 12,1 18 10 35 19 NE 1025,4 52 60 0,0
19.04.2017 11:00:00 10,8 -1,3 11,6 12,7 12,1 16 9 31 17 ENE 1025,5 58 60 0,0
19.04.2017 10:00:00 8,6 -1,5 5,7 12,8 12,1 13 7 27 15 ENE 1025,8 60 60 0,0
19.04.2017 09:00:00 6,4 -1,5 -1,4 13,0 12,1 7 4 16 9 NNE 1026,2 56 60 0,0
19.04.2017 08:00:00 2,3 -1,3 -2,0 13,2 12,1 4 2 5 3 N 1026,5 55 23 0,0
19.04.2017 07:00:00 2,8 -2,9 -1,6 13,4 12,1 2 1 17 9 E 1026,0 60 0 0,0
19.04.2017 06:00:00 4,1 -2,8 -1,4 13,5 12,1 9 5 15 8 NE 1025,5 60 0 0,0
19.04.2017 05:00:00 2,3 -2,0 -1,4 13,7 12,1 2 1 8 4 ENE 1025,8 60 0 0,0
19.04.2017 04:00:00 4,8 -3,0 -1,1 13,8 12,1 7 4 13 7 NNE 1025,3 60 0 0,0
19.04.2017 03:00:00 5,9 -2,7 1,2 13,9 12,1 6 4 19 10 N 1025,4 60 0 0,0
19.04.2017 02:00:00 9,0 -3,6 5,0 14,0 12,1 13 7 29 16 NNE 1025,0 60 0 0,0
19.04.2017 01:00:00 10,3 -3,4 6,8 14,1 12,1 13 7 23 12 NE 1024,8 60 0 0,0
19.04.2017 00:00:00 10,7 -1,7 5,7 14,2 12,1 9 5 23 13 NE 1024,4 60 0 0,0
18.04.2017 23:00:00 11,1 -0,4 7,2 14,2 12,1 10 5 19 11 NE 1023,9 60 0 0,0
18.04.2017 22:00:00 12,5 0,6 8,8 14,2 12,1 10 5 18 10 NE 1022,9 60 0 0,0
18.04.2017 21:00:00 12,6 0,7 9,4 14,2 12,1 11 6 27 15 NNE 1022,0 60 0 0,0
18.04.2017 20:00:00 14,6 3,4 14,1 14,1 12,1 13 7 26 14 NNE 1021,2 60 0 0,0
18.04.2017 19:00:00 15,6 4,3 17,4 13,9 12,1 15 8 27 14 NNE 1020,8 60 1 0,0
18.04.2017 18:00:00 16,1 4,8 19,7 13,6 12,1 13 7 26 14 NNE 1020,6 60 0 0,0
18.04.2017 17:00:00 17,2 5,2 32,7 13,4 12,1 12 7 32 17 NNE 1020,4 53 53 0,0
18.04.2017 16:00:00 18,3 6,5 25,5 13,2 12,1 15 8 34 18 NNW 1020,4 44 47 0,0
18.04.2017 15:00:00 17,5 6,7 28,0 12,9 12,1 14 8 31 17 NNW 1020,7 60 56 0,0
18.04.2017 14:00:00 16,9 7,0 26,5 12,8 12,1 12 6 25 14 N 1021,2 20 52 0,0
18.04.2017 13:00:00 15,9 6,0 27,3 12,8 12,1 12 6 28 15 N 1021,8 20 58 0,0
18.04.2017 12:00:00 15,3 7,3 20,1 12,8 12,1 11 6 23 12 NE 1022,0 54 60 0,0
18.04.2017 11:00:00 14,1 7,6 15,2 12,9 12,1 7 4 13 7 N 1021,9 20 60 0,0
18.04.2017 10:00:00 11,5 8,9 11,0 13,0 12,1 2 1 14 7 NNW 1022,1 19 53 0,0
18.04.2017 09:00:00 9,4 8,5 6,0 13,1 12,1 7 4 12 7 NNW 1022,4 9 56 0,0
18.04.2017 08:00:00 7,0 6,1 1,5 13,2 12,1 10 5 14 7 S 1022,5 20 25 0,0
18.04.2017 07:00:00 6,4 5,2 1,4 13,4 12,1 9 5 11 6 SSE 1022,3 35 0 0,0
18.04.2017 06:00:00 5,5 4,6 - - - 8 4 9 5 SSE 1022,2 35 - 0,0
18.04.2017 05:00:00 6,6 5,2 1,7 13,6 12,1 8 4 11 6 SSE 1021,6 37 0 0,0
18.04.2017 04:00:00 7,3 5,4 2,5 13,7 12,1 6 3 10 6 S 1021,3 47 0 0,0
18.04.2017 03:00:00 7,6 5,2 3,0 13,9 12,1 5 3 10 5 SSE 1021,7 48 0 0,0
18.04.2017 02:00:00 9,0 5,9 3,8 14,0 12,1 8 4 12 6 SSE 1021,7 52 0 0,0
18.04.2017 01:00:00 10,0 6,3 4,1 14,1 12,1 6 3 11 6 S 1021,7 52 0 0,0
18.04.2017 00:00:00 9,1 5,6 - - - 8 4 11 6 S 1021,9 60 - 0,0
17.04.2017 23:00:00 10,8 6,2 5,1 14,2 12,1 8 4 11 6 S 1021,4 59 0 0,0

tt = Température de l'air
td = dewpoint
tt 5cm = Température de l'air 5cm
tt -20cm = Température de l'air -20cm
tt -100cm = Température de l'air -100cm
ff = Vitesse du vent
fx = gusts
dd = Direction du vent
ppp = reduced air pressure
vv = visibility
sd = Ensoleillement
rr = Quantités de précipitations

stations d'obs. à proximité